Location: Les Coudrans
(46.1056°N, 1.1158°W)
Time: 18:34:43
(UTC+00:00)

Okean-O - Pass Details

Date: 03 March 2021
Orbit: 639 x 640 km, 98.2° (Epoch: 16 April)

Event Time Altitude Azimuth Distance (km) Brightness Sun altitude
Rises 18:21:49 0° 152° (SSE) 2,934 5.8 -5.7°
Reaches altitude 10° 18:24:02 10° 147° (SSE) 2,029 4.9 -6.0°
Maximum altitude 18:28:20 53° 72° (ENE) 791 2.8 -6.8°
Drops below altitude 10° 18:32:40 10° 355° (N) 2,044 5.3 -7.5°
Sets 18:34:55 0° 351° (N) 2,958 6.1 -7.9°
